Wind_Speed
22 22 23 23 23 24 24 25 25 26 27 28 29 30 32 33 35 36 38 39 41 43 44 44 45 47 48 49 51 52 53 53 55 56 56 56 57 57 57 57 58 58 59
22 23 24 24 24 25 25 26 27 27 28 29 30 31 32 33 35 37 39 40 42 43 44 45 47 48 50 51 52 54 55 56 57 58 59 58 58 58 59 60 60 60 61
23 24 25 25 25 26 27 27 28 29 29 30 31 32 33 35 36 38 40 41 43 44 46 47 49 50 51 52 54 56 57 58 59 60 61 61 60 60 60 61 62 62 63
25 25 26 27 27 27 28 29 29 30 30 31 32 32 34 35 36 38 40 42 43 45 47 48 50 52 53 54 56 58 59 60 61 62 63 64 64 64 62 61 62 63 64
26 26 27 28 28 29 29 29 30 30 31 31 32 33 34 35 37 38 40 42 44 45 47 49 51 52 54 55 57 59 60 62 63 64 65 66 67 67 67 64 63 64 65
27 28 28 29 29 29 29 29 29 30 31 32 33 34 35 36 38 40 41 43 45 47 49 51 52 54 55 57 59 61 62 64 65 66 67 68 69 70 71 70 68 67 67
27 28 29 29 29 29 29 29 30 31 32 33 34 36 37 38 40 42 43 45 47 49 52 54 56 58 59 61 63 64 66 67 68 69 70 71 72 73 74 74 73 71 70
27 28 29 29 29 30 31 32 33 33 34 35 37 38 40 42 43 45 47 49 51 54 56 58 60 62 64 66 67 69 70 71 72 73 74 75 75 76 76 76 76 75 73
27 28 29 31 31 32 33 34 34 35 37 38 40 42 44 46 48 50 52 54 56 59 61 63 65 67 69 70 72 73 74 75 76 77 77 78 78 78 78 79 79 79 77
29 30 32 33 34 35 35 36 37 38 40 42 44 46 48 50 53 55 58 60 63 65 67 69 70 72 74 75 77 78 78 79 79 80 80 80 80 81 81 81 81 81 80
32 34 35 36 37 37 38 39 41 42 44 47 49 51 54 56 59 61 64 66 68 71 73 74 76 78 79 80 81 82 82 82 82 82 83 82 82 83 82 82 82 81 80
35 36 37 38 39 40 41 43 44 47 49 52 54 56 59 61 64 66 69 71 74 76 78 80 82 83 84 85 85 84 84 84 83 83 83 83 83 83 82 82 81 81 80
37 38 39 41 42 43 45 47 49 51 54 56 58 61 64 66 69 72 74 76 79 81 83 85 85 86 86 86 85 84 83 83 82 81 81 80 80 80 79 80 79 78 78
39 41 42 43 45 47 49 51 53 56 58 61 63 66 69 72 74 77 79 81 83 85 86 87 86 85 84 83 82 81 80 79 78 77 76 76 76 76 76 76 75 75 75
42 43 45 46 48 50 53 55 58 61 63 66 68 71 74 77 79 81 83 85 87 87 87 85 83 82 80 79 78 77 75 73 72 71 71 70 70 70 70 70 70 70 70
44 46 48 49 52 54 57 60 62 65 68 70 73 76 78 81 83 85 86 87 87 85 84 81 79 77 75 73 72 71 69 68 66 65 65 64 64 64 64 63 64 65 65
46 48 50 53 55 58 61 63 66 69 72 74 77 80 82 84 86 87 86 85 84 81 79 76 73 71 69 67 66 65 64 62 60 59 59 58 58 58 59 59 59 60 60
49 51 53 56 59 62 64 67 70 73 75 78 80 83 85 86 86 85 83 81 79 76 73 70 67 64 62 61 60 59 57 56 55 55 54 54 54 55 55 55 55 55 56
52 54 57 59 62 65 68 70 73 76 79 81 82 84 85 85 83 81 78 76 73 70 67 64 61 59 57 56 55 54 53 51 50 50 50 50 50 51 51 52 51 50 51
55 57 60 62 65 68 71 73 76 79 81 82 83 83 83 82 79 77 74 71 68 65 61 57 56 55 53 53 52 51 50 48 46 46 46 47 47 47 47 48 48 47 47
57 60 62 65 68 71 73 76 79 81 82 83 82 81 80 77 75 72 69 65 62 59 55 53 52 51 51 50 49 48 47 45 44 43 43 44 44 44 44 44 44 44 44
60 62 65 67 70 74 76 79 81 82 82 81 80 78 75 73 70 67 63 60 57 54 52 50 48 48 48 48 46 45 45 44 43 42 41 40 40 41 41 41 41 42 43
62 65 67 70 73 76 78 80 81 81 80 78 76 74 71 68 64 61 58 55 53 52 50 48 46 45 45 45 44 43 43 43 42 41 39 38 38 38 39 39 40 40 41
65 67 70 72 74 76 78 80 80 80 78 75 72 69 66 62 59 57 55 53 51 50 48 46 45 44 43 42 42 42 41 41 40 39 38 38 38 38 39 39 39 39 39
67 70 72 74 76 77 78 78 78 77 75 71 68 64 61 58 55 53 51 50 49 48 47 46 45 44 42 41 41 40 39 39 38 38 38 38 38 38 38 38 38 38 38
69 72 74 75 76 77 77 76 76 74 71 67 63 60 57 54 52 50 47 46 47 46 46 46 45 44 43 41 40 39 38 37 38 38 38 38 38 38 37 36 36 36 35
Wind_Direction
290 291 291 290 289 287 286 284 283 282 282 281 281 280 280 280 279 279 279 279 280 280 281 281 281 281 281 281 282 282 281 281 281 281 281 281 281 282 283 282 282 282 283
290 291 291 291 290 289 288 287 286 285 284 283 283 282 282 282 281 281 281 282 282 283 284 284 283 283 283 283 283 283 282 282 281 282 281 281 281 282 282 281 281 282 282
290 290 290 290 290 290 289 289 288 288 287 287 286 285 284 283 283 283 284 284 284 284 285 285 285 284 284 284 284 283 283 283 282 283 283 282 282 280 280 280 281 281 281
290 290 289 289 289 290 290 290 290 290 290 289 288 288 287 286 286 285 285 285 285 285 285 285 284 285 285 285 284 284 284 283 283 283 283 283 283 281 280 279 279 279 279
289 289 289 289 290 291 291 292 292 292 292 292 291 290 289 289 288 288 287 287 287 287 286 286 286 286 285 285 284 284 283 283 283 283 282 282 282 282 282 280 278 277 277
289 289 289 290 291 292 293 293 293 293 293 293 293 293 292 291 291 290 289 289 289 288 288 288 287 287 287 286 285 284 284 284 283 283 282 282 281 281 281 281 280 278 277
290 290 291 291 292 293 294 294 294 294 295 295 295 295 294 293 293 292 291 291 290 290 289 289 289 288 287 287 286 285 285 284 283 283 282 281 281 280 280 280 279 278 277
290 291 291 291 292 293 294 294 295 295 295 296 296 296 295 295 294 293 293 292 292 291 291 290 290 289 288 288 287 286 285 284 283 282 281 281 280 279 279 278 277 277 276
290 290 291 292 293 294 295 296 296 296 297 297 297 297 296 296 295 295 294 294 293 293 292 291 291 290 289 288 287 286 285 284 283 282 281 280 279 278 277 277 276 276 275
291 291 292 293 295 296 297 297 298 298 298 299 299 299 298 298 297 297 296 295 295 294 293 292 291 290 289 288 287 286 285 283 282 281 280 279 278 277 276 276 275 275 275
292 293 294 295 297 298 298 298 299 300 300 300 300 300 300 299 299 298 298 297 296 295 294 293 292 291 290 289 288 286 285 283 282 281 279 278 277 276 275 274 274 274 274
293 294 295 297 298 298 299 300 301 301 301 301 301 301 301 301 300 300 299 298 297 296 295 294 293 292 291 290 288 287 285 284 282 280 279 278 276 276 275 274 274 273 273
293 295 296 298 298 299 300 301 302 302 302 302 302 302 302 301 301 300 300 299 298 297 297 296 295 294 292 291 289 287 285 284 282 280 279 278 277 276 275 274 274 273 273
294 296 297 298 299 300 301 302 303 303 303 303 303 303 302 302 302 301 300 300 300 299 298 297 296 295 293 291 289 287 285 284 283 281 280 279 278 277 276 275 274 273 273
294 296 298 299 300 301 302 302 303 303 303 303 303 304 304 303 303 303 302 302 301 301 300 299 297 296 294 292 290 288 287 285 283 282 281 280 279 279 278 277 276 274 274
295 297 298 299 300 301 302 303 303 304 304 304 304 305 305 305 305 304 304 304 303 302 301 300 299 297 296 294 292 291 289 287 285 283 282 282 281 280 279 278 277 276 275
295 297 298 300 301 302 303 304 304 305 305 305 306 306 306 306 306 306 306 305 304 304 303 302 300 299 297 295 294 292 291 290 288 286 285 283 282 280 279 278 277 276 276
296 298 299 301 302 303 304 305 305 306 306 307 307 307 307 308 308 307 307 306 305 304 304 303 301 300 299 297 296 294 293 292 290 289 287 285 283 281 280 278 277 276 275
298 299 301 302 303 304 305 306 306 307 308 308 309 309 309 309 309 308 308 307 306 306 305 304 303 302 301 299 298 296 295 294 292 290 288 287 285 283 282 280 279 277 275
299 301 302 303 304 305 306 307 308 308 309 310 310 311 310 310 310 309 309 308 308 307 306 305 304 303 303 301 300 299 298 296 294 292 291 289 288 285 284 283 281 279 277
300 302 303 304 305 306 307 308 309 310 311 311 312 311 311 311 311 310 310 309 308 308 307 307 306 305 304 304 303 301 300 299 297 295 292 291 289 288 287 285 284 281 279
301 303 305 306 307 308 309 310 311 311 312 312 312 312 312 312 311 311 310 310 309 309 308 308 307 307 306 305 305 303 302 301 300 298 295 293 291 290 289 288 286 284 281
303 305 306 307 309 310 310 311 312 312 312 313 313 313 313 313 312 311 311 310 310 310 309 309 309 308 307 306 305 305 303 302 301 300 298 297 295 293 291 289 288 285 283
305 306 307 309 310 311 311 312 312 313 313 313 313 313 313 313 312 312 311 311 311 310 310 310 310 310 309 308 306 305 304 302 301 300 299 298 297 295 294 291 289 287 285
306 307 308 309 310 311 312 313 313 313 313 314 314 314 314 313 313 312 311 311 311 311 311 311 311 311 310 309 308 307 305 303 302 301 300 299 298 296 295 293 290 288 286
306 308 309 310 311 312 313 313 313 313 313 314 314 314 314 314 313 312 311 312 312 312 312 312 313 313 312 311 311 309 308 306 305 304 302 301 299 298 296 294 292 290 287
Height
5805 5803 5801 5800 5798 5797 5795 5794 5793 5791 5789 5788 5786 5785 5783 5781 5780 5777 5776 5774 5772 5770 5769 5768 5766 5764 5762 5760 5758 5756 5754 5752 5749 5747 5747 5745 5743 5742 5740 5738 5736 5734 5732
5801 5799 5797 5795 5793 5792 5790 5788 5787 5785 5783 5782 5780 5778 5776 5774 5772 5770 5767 5765 5763 5761 5759 5757 5755 5753 5751 5749 5746 5743 5741 5739 5736 5733 5731 5731 5731 5729 5726 5723 5721 5720 5717
5796 5795 5793 5790 5788 5786 5784 5782 5780 5779 5777 5775 5773 5771 5769 5767 5764 5762 5760 5757 5754 5752 5749 5747 5744 5742 5739 5737 5734 5730 5727 5725 5722 5718 5715 5714 5715 5714 5712 5709 5707 5704 5702
5792 5790 5787 5785 5783 5781 5778 5776 5774 5772 5770 5768 5766 5764 5762 5759 5757 5754 5751 5748 5745 5742 5739 5736 5733 5730 5727 5724 5721 5717 5713 5710 5707 5704 5700 5697 5696 5694 5695 5696 5692 5689 5686
5786 5784 5782 5780 5777 5775 5773 5770 5768 5766 5763 5761 5759 5756 5754 5751 5749 5746 5743 5739 5736 5732 5729 5725 5722 5718 5715 5711 5707 5703 5699 5695 5691 5688 5685 5681 5678 5675 5673 5675 5676 5672 5670
5780 5778 5776 5773 5771 5769 5766 5764 5761 5759 5756 5754 5751 5749 5746 5743 5740 5736 5733 5730 5726 5722 5718 5713 5709 5705 5701 5697 5693 5688 5684 5680 5676 5671 5667 5664 5661 5658 5654 5653 5655 5654 5653
5774 5772 5769 5767 5765 5762 5760 5757 5755 5752 5749 5746 5743 5740 5737 5734 5730 5726 5723 5719 5715 5710 5705 5700 5696 5691 5686 5682 5677 5672 5667 5662 5658 5654 5649 5645 5642 5639 5635 5632 5632 5631 5633
5768 5765 5763 5760 5758 5756 5753 5750 5748 5745 5742 5739 5735 5732 5728 5724 5720 5716 5712 5707 5702 5697 5692 5687 5681 5676 5670 5665 5659 5654 5649 5644 5639 5635 5630 5625 5622 5617 5614 5611 5608 5608 5610
5761 5759 5756 5754 5751 5748 5746 5743 5740 5737 5733 5730 5726 5722 5717 5713 5709 5704 5699 5694 5688 5683 5677 5671 5665 5659 5652 5646 5640 5635 5629 5623 5618 5613 5608 5604 5600 5595 5592 5588 5585 5583 5584
5755 5752 5749 5746 5743 5740 5737 5734 5731 5728 5724 5720 5716 5711 5706 5701 5696 5690 5685 5679 5673 5666 5660 5653 5646 5639 5632 5625 5619 5613 5607 5601 5596 5590 5585 5581 5577 5572 5568 5565 5562 5558 5558
5747 5744 5741 5738 5735 5732 5728 5725 5721 5717 5713 5708 5704 5698 5693 5687 5681 5675 5668 5662 5655 5647 5640 5633 5625 5618 5610 5602 5595 5589 5583 5577 5572 5566 5560 5557 5552 5547 5544 5540 5538 5536 5533
5739 5736 5733 5729 5726 5722 5719 5715 5711 5706 5701 5696 5690 5685 5678 5672 5665 5658 5651 5643 5635 5627 5619 5611 5603 5594 5586 5578 5570 5563 5557 5551 5546 5540 5534 5531 5526 5522 5519 5516 5514 5513 5511
5731 5727 5724 5720 5716 5712 5708 5704 5699 5694 5688 5683 5676 5670 5663 5656 5648 5640 5631 5623 5614 5605 5596 5587 5578 5569 5560 5551 5543 5536 5530 5524 5519 5514 5509 5505 5500 5497 5494 5491 5490 5489 5487
5721 5718 5714 5710 5706 5702 5697 5692 5687 5681 5675 5668 5661 5654 5646 5638 5629 5620 5611 5601 5591 5582 5572 5562 5552 5543 5533 5525 5516 5509 5503 5498 5493 5488 5484 5480 5475 5473 5470 5467 5467 5465 5464
5712 5708 5704 5700 5696 5691 5686 5680 5674 5667 5660 5652 5644 5636 5628 5618 5609 5599 5589 5578 5568 5557 5546 5536 5527 5517 5507 5499 5491 5484 5479 5474 5469 5465 5460 5457 5453 5450 5447 5445 5445 5443 5442
5702 5698 5694 5689 5684 5679 5673 5666 5659 5652 5644 5636 5627 5618 5608 5598 5587 5577 5566 5554 5543 5532 5522 5511 5502 5493 5484 5475 5467 5460 5455 5451 5447 5444 5440 5436 5432 5429 5426 5425 5424 5423 5422
5692 5687 5682 5677 5671 5665 5659 5652 5644 5636 5627 5618 5608 5598 5587 5577 5565 5554 5542 5530 5519 5509 5499 5489 5479 5471 5463 5454 5447 5440 5434 5431 5427 5423 5420 5417 5414 5410 5408 5406 5404 5403 5402
5680 5675 5670 5664 5658 5651 5644 5636 5628 5619 5609 5599 5589 5577 5566 5555 5543 5531 5519 5508 5497 5487 5478 5469 5460 5451 5444 5436 5429 5422 5417 5413 5410 5405 5402 5399 5396 5393 5390 5388 5387 5385 5384
5668 5663 5657 5650 5643 5636 5628 5620 5611 5601 5591 5580 5569 5556 5544 5533 5521 5510 5498 5487 5477 5468 5459 5450 5442 5434 5428 5420 5413 5407 5402 5398 5394 5390 5386 5382 5380 5377 5373 5371 5370 5369 5367
5655 5649 5643 5636 5628 5620 5612 5603 5593 5583 5572 5561 5549 5536 5523 5511 5500 5489 5479 5468 5458 5450 5442 5434 5426 5419 5413 5406 5399 5392 5388 5384 5380 5376 5372 5368 5364 5361 5358 5355 5354 5353 5352
5642 5635 5629 5621 5612 5603 5595 5585 5575 5564 5552 5541 5529 5516 5504 5492 5481 5471 5461 5451 5442 5434 5427 5420 5413 5405 5398 5392 5385 5379 5374 5370 5366 5363 5359 5354 5350 5347 5344 5341 5339 5337 5336
5628 5621 5613 5605 5595 5586 5577 5567 5557 5546 5534 5523 5511 5499 5487 5475 5463 5454 5445 5436 5427 5420 5413 5407 5401 5394 5386 5379 5373 5367 5362 5356 5352 5349 5345 5341 5337 5334 5331 5328 5325 5323 5321
5613 5605 5597 5589 5579 5568 5558 5548 5538 5526 5516 5504 5493 5481 5471 5459 5448 5439 5430 5423 5414 5407 5400 5394 5388 5382 5375 5368 5361 5356 5350 5345 5340 5336 5332 5329 5325 5321 5318 5315 5312 5310 5308
5597 5589 5581 5572 5563 5552 5540 5529 5519 5508 5497 5487 5476 5465 5455 5446 5436 5426 5417 5410 5402 5395 5388 5382 5376 5370 5364 5357 5351 5345 5340 5334 5329 5325 5321 5317 5313 5309 5306 5303 5299 5297 5294
5581 5573 5564 5556 5546 5535 5524 5512 5501 5490 5480 5471 5460 5450 5441 5432 5424 5416 5407 5398 5391 5382 5376 5370 5364 5358 5353 5347 5340 5334 5329 5324 5319 5314 5310 5306 5302 5298 5294 5290 5287 5284 5282
5565 5557 5548 5539 5529 5518 5507 5496 5484 5474 5464 5455 5446 5437 5428 5419 5411 5404 5397 5389 5380 5373 5365 5358 5352 5346 5341 5335 5329 5323 5318 5313 5308 5303 5298 5294 5290 5286 5282 5279 5275 5272 5270